Weather History for KESF - August, 2013

Change the Weather History Date:

Saturday, August 3, 2013

  Actual Average (KAEX) Record (KAEX)
Temperature  
Mean Temperature 84 °F 83 °F  
Max Temperature 96 °F 93 °F 106 °F (1998)
Min Temperature 73 °F 73 °F 66 °F (1976)
Cooling Degree Days 19 18  
Month to date cooling degree days 54  
Year to date cooling degree days 1500  
Since 1 June cooling degree days 1046  
Growing Degree Days 34 (Base 50)    
Moisture  
Dew Point 75 °F    
Average Humidity 80    
Maximum Humidity 97    
Minimum Humidity 47    
Precipitation  
Precipitation 0.00 in 0.12 in 2.95 in (1983)
Month to date precipitation 0.34  
Year to date precipitation 33.07  
Sea Level Pressure  
Sea Level Pressure 30.02 in    
Wind  
Wind Speed 1 mph (SW)    
Max Wind Speed 10 mph    
Max Gust Speed -    
Visibility 6 miles    
Events      
T = Trace of Precipitation, MM = Missing Value Source: NWS Daily Summary

Daily Weather History Graph

Daily Weather History Graph

Search for Another Location

Airport or City:

Trip Planner

Search our weather history database for the weather conditions in past years. The results will help you decide how hot, cold, wet, or windy it might be!

Date:

Astronomy

Aug. 03, 2013 Rise Set
Actual Time 6:27 AM CDT 8:03 PM CDT
Civil Twilight 6:00 AM CDT 8:29 PM CDT
Nautical Twilight 5:29 AM CDT 9:00 PM CDT
Astronomical Twilight 4:56 AM CDT 9:33 PM CDT
Moon 3:39 AM CDT (8/3) 5:44 PM CDT (8/3)
Length of Visible Light 14h 28m
Length of Day
13h 36m
Waning Crescent, 9% of the Moon is Illuminated
Aug 3
Waning Crescent
Aug 6
New
Aug 14
First Quarter
Aug 20
Full
Aug 28
Last Quarter

Hourly Weather History & Observations

Time (CDT) Temp. Heat Index Dew Point Humidity Pressure Visibility Wind Dir Wind Speed Gust Speed Precip Events Conditions
12:53 AM 78.1 °F - 75.0 °F 90% 29.99 in 7.0 mi Calm Calm - N/A   Clear
1:53 AM 77.0 °F - 75.0 °F 94% 29.98 in 6.0 mi Calm Calm - N/A   Clear
2:30 AM 75.2 °F - 73.4 °F 94% 29.99 in 1.8 mi Calm Calm - N/A   Clear
2:53 AM 75.0 °F - 73.0 °F 94% 29.98 in 1.8 mi South 3.5 mph - N/A   Clear
2:55 AM 75.2 °F - 73.4 °F 94% 29.99 in 3.0 mi Calm Calm - N/A   Clear
3:53 AM 75.9 °F - 73.0 °F 91% 29.98 in 6.0 mi Calm Calm - N/A   Clear
4:53 AM 75.9 °F - 73.0 °F 91% 29.98 in 4.0 mi Calm Calm - N/A   Clear
5:15 AM 73.4 °F - 71.6 °F 94% 29.99 in 1.8 mi Calm Calm - N/A   Clear
5:29 AM 75.2 °F - 73.4 °F 94% 29.99 in 3.0 mi Calm Calm - N/A   Clear
5:32 AM 75.2 °F - 71.6 °F 89% 29.99 in 1.8 mi Calm Calm - N/A   Clear
5:53 AM 73.9 °F - 73.0 °F 97% 29.99 in 2.5 mi Calm Calm - N/A   Clear
6:23 AM 75.2 °F - 73.4 °F 94% 30.00 in 3.0 mi Calm Calm - N/A   Clear
6:53 AM 75.0 °F - 73.0 °F 94% 30.00 in 6.0 mi Calm Calm - N/A   Clear
7:53 AM 80.1 °F 85.1 °F 75.0 °F 85% 30.01 in 10.0 mi WSW 5.8 mph - N/A   Clear
8:53 AM 84.0 °F 92.6 °F 75.9 °F 76% 30.04 in 10.0 mi West 6.9 mph - N/A   Clear
9:53 AM 87.1 °F 96.3 °F 75.0 °F 67% 30.05 in 10.0 mi West 10.4 mph - N/A   Clear
10:53 AM 89.1 °F 99.1 °F 75.0 °F 63% 30.06 in 10.0 mi West 6.9 mph - N/A   Scattered Clouds
11:19 AM 89.6 °F 99.8 °F 75.2 °F 62% 30.06 in 10.0 mi West 6.9 mph - N/A   Mostly Cloudy
11:26 AM 89.6 °F 99.8 °F 75.2 °F 62% 30.06 in 10.0 mi WSW 4.6 mph - N/A   Partly Cloudy
11:53 AM 91.0 °F 100.4 °F 73.9 °F 57% 30.05 in 10.0 mi SSW 5.8 mph - N/A   Partly Cloudy
12:53 PM 91.9 °F 101.3 °F 73.9 °F 55% 30.05 in 10.0 mi Variable 3.5 mph - N/A   Scattered Clouds
1:53 PM 93.0 °F 101.9 °F 73.0 °F 52% 30.04 in 10.0 mi SSE 3.5 mph - N/A   Clear
2:53 PM 95.0 °F 103.2 °F 72.0 °F 47% 30.03 in 10.0 mi Calm Calm - N/A   Clear
3:53 PM 93.9 °F 104.0 °F 73.9 °F 52% 30.01 in 10.0 mi East 3.5 mph - N/A   Partly Cloudy
4:53 PM 93.9 °F 106.9 °F 75.9 °F 56% 30.00 in 10.0 mi ENE 3.5 mph - N/A   Clear
5:53 PM 91.9 °F 105.9 °F 77.0 °F 62% 30.00 in 10.0 mi Calm Calm - N/A   Clear
6:53 PM 91.0 °F 104.2 °F 77.0 °F 63% 30.00 in 10.0 mi Calm Calm - N/A   Clear
7:53 PM 86.0 °F 99.3 °F 79.0 °F 79% 30.01 in 10.0 mi Calm Calm - N/A   Clear
8:53 PM 82.0 °F 91.0 °F 78.1 °F 88% 30.02 in 9.0 mi Calm Calm - N/A   Clear
9:53 PM 80.1 °F 85.8 °F 77.0 °F 90% 30.04 in 5.0 mi Calm Calm - N/A   Clear
10:49 PM 78.8 °F - 77.0 °F 94% 30.05 in 1.8 mi Calm Calm - N/A   Clear
10:53 PM 79.0 °F - 77.0 °F 94% 30.04 in 0.8 mi Calm Calm - N/A   Clear
11:07 PM 78.8 °F - 75.2 °F 89% 30.05 in 2.5 mi Calm Calm - N/A   Clear
11:14 PM 78.8 °F - 75.2 °F 89% 30.05 in 4.0 mi Calm Calm - N/A   Clear
11:44 PM 78.8 °F - 75.2 °F 89% 30.05 in 1.8 mi Calm Calm - N/A   Clear
11:53 PM 78.1 °F - 75.9 °F 93% 30.05 in 1.8 mi Calm Calm - N/A   Clear
11:56 PM 78.8 °F - 75.2 °F 89% 30.05 in 3.0 mi Calm Calm - N/A   Clear